Tracking 25650 objects as of 16-May-2022
HD Live streaming from Space Station
objects crossing your sky now

COSMOS 2251 DEB

Track COSMOS 2251 DEB now!
10-day predictions


NORAD ID: 37133
Int'l Code: 1993-036BHF
Perigee: 715.6 km
Apogee: 1,126.7 km
Inclination: 74.0 °
Period: 103.3 minutes
Semi major axis: 7292 km
RCS: 0.0013 m2 (small)
Launch date: June 16, 1993
Source: Commonwealth of Independent States (former USSR) (CIS)
Launch site: PLESETSK MISSILE AND SPACE COMPLEX (PKMTR)

Note: This is SATELLITE DEBRIS
aabbcc
Your satellite tracking list
Your tracking list is empty




NASA's NSSDC Master Catalog

Two Line Element Set (TLE):
1 37133U 93036BHF 22134.11974223  .00006511  00000-0  35403-2 0  9999
2 37133  74.0128 177.5863 0281913 282.5800  74.3938 13.94186130398872
Source of the keplerian elements: AFSPC